Location: ???? ????
(31.2831°N, 45.5190°E)
Time: 11:57:49
(UTC+00:00)

X-37B - Pass Details

Date: 02 October 2021
Orbit: 385 x 389 km, 45.0° (Epoch: 13 October)

Event Time Altitude Azimuth Distance (km) Brightness Sun altitude
Exits shadow 01:48:14 - 332° (NNW) 1,575 3.4 -14.5°
Reaches altitude 10° 01:48:48 10° 339° (NNW) 1,410 3.2 -14.4°
Maximum altitude 01:51:01 17° 23° (NNE) 1,056 3.1 -13.9°
Drops below altitude 10° 01:53:13 10° 68° (ENE) 1,409 4.7 -13.4°
Sets 01:55:46 0° 89° (E) 2,262 6.6 -12.9°
